FW9002 Weather Reports


time (UTC)temp
C
wind
direction
speed
KPH
gust
KPH
rain 1hr
cm
rain 24hr
cm
rain mn
cm
humidity
%
barometer
mb
20260904052647 27 57 0.0 0.0 0.00 0.00 0.00 60 1013.3
20260904052142 27 68 1.6 1.6 0.00 0.00 0.00 59 1013.2
20260904051639 27 85 1.6 1.6 0.00 0.00 0.00 59 1013.2
20260904051139 27 104 0.0 0.0 0.00 0.00 0.00 58 1013.3
20260904050634 27 113 3.2 3.2 0.00 0.00 0.00 58 1013.4
20260904050125 27 117 3.2 3.2 0.00 0.00 0.00 58 1013.4
20260904045625 27 132 1.6 1.6 0.00 0.00 0.00 57 1013.3
20260904045119 27 124 1.6 1.6 0.00 0.00 0.00 58 1013.5
20260904044615 27 116 1.6 1.6 0.00 0.00 0.00 58 1013.4
20260904044111 27 121 0.0 0.0 0.00 0.00 0.00 57 1013.3
20260904043608 27 84 0.0 0.0 0.00 0.00 0.00 57 1013.3
20260904043103 27 116 1.6 3.2 0.00 0.00 0.00 57 1013.4
20260904042559 27 82 0.0 0.0 0.00 0.00 0.00 57 1013.4
20260904042054 28 101 4.8 4.8 0.00 0.00 0.00 56 1013.5
20260904041549 28 104 1.6 1.6 0.00 0.00 0.00 56 1013.5
20260904041045 28 98 4.8 8.0 0.00 0.00 0.00 55 1013.6
20260904040545 28 102 1.6 1.6 0.00 0.00 0.00 55 1013.4
20260904040042 28 126 3.2 4.8 0.00 0.00 0.00 54 1013.3
20260904035537 28 106 0.0 0.0 0.00 0.00 0.00 54 1013.3
20260904035037 28 127 6.4 8.0 0.00 0.00 0.00 54 1013.1
20260904034531 28 130 1.6 1.6 0.00 0.00 0.00 54 1013.3
20260904034027 28 100 0.0 0.0 0.00 0.00 0.00 55 1013.3
20260904033523 28 110 3.2 3.2 0.00 0.00 0.00 55 1013.2
20260904033020 28 107 0.0 1.6 0.00 0.00 0.00 55 1013.0
20260904032515 28 124 1.6 1.6 0.00 0.00 0.00 55 1013.1
20260904032014 28 104 1.6 1.6 0.00 0.00 0.00 54 1013.0
20260904031509 28 119 4.8 4.8 0.00 0.00 0.00 54 1012.9
20260904031005 28 83 4.8 4.8 0.00 0.00 0.00 54 1012.8
20260904030501 28 74 3.2 3.2 0.00 0.00 0.00 54 1012.8
20260904025955 28 68 1.6 3.2 0.00 0.00 0.00 55 1012.5
20260904025452 28 92 3.2 3.2 0.00 0.00 0.00 54 1012.7
20260904024951 28 124 0.0 1.6 0.00 0.00 0.00 54 1012.5
20260904024447 28 114 4.8 4.8 0.00 0.00 0.00 54 1012.4
20260904023943 28 118 1.6 1.6 0.00 0.00 0.00 54 1012.2
20260904023439 28 111 1.6 3.2 0.00 0.00 0.00 54 1012.2
20260904022938 28 49 3.2 3.2 0.00 0.00 0.00 54 1012.4
20260904022435 28 88 0.0 0.0 0.00 0.00 0.00 55 1012.1
20260904021931 28 115 1.6 1.6 0.00 0.00 0.00 54 1012.1
20260904021426 28 245 6.4 12.9 0.00 0.00 0.00 54 1012.1
20260904020921 28 172 3.2 4.8 0.00 0.00 0.00 54 1011.8
20260904020416 29 150 4.8 8.0 0.00 0.00 0.00 54 1011.9
20260904015914 29 183 6.4 8.0 0.00 0.00 0.00 54 1011.8
20260904015411 29 222 6.4 9.7 0.00 0.00 0.00 53 1011.9
20260904014909 29 245 9.7 12.9 0.00 0.00 0.00 53 1011.4
20260904014404 29 211 11.3 14.5 0.00 0.00 0.00 52 1011.5
20260904013900 29 248 4.8 8.0 0.00 0.00 0.00 52 1011.5
20260904013356 29 232 4.8 8.0 0.00 0.00 0.00 52 1011.5
20260904012852 30 239 9.7 11.3 0.00 0.00 0.00 51 1011.5
20260904012346 30 160 9.7 14.5 0.00 0.00 0.00 50 1011.2
20260904011845 30 190 11.3 12.9 0.00 0.00 0.00 49 1011.3
20260904011340 30 258 8.0 9.7 0.00 0.00 0.00 49 1011.1
20260904010835 30 243 8.0 11.3 0.00 0.00 0.00 48 1011.3
20260904010332 31 202 8.0 11.3 0.00 0.00 0.00 47 1011.0
20260904005827 31 223 6.4 11.3 0.00 0.00 0.00 46 1011.3
20260904005322 31 172 4.8 8.0 0.00 0.00 0.00 48 1011.2
20260904004817 31 226 6.4 8.0 0.00 0.00 0.00 47 1011.2
20260904004314 31 189 6.4 8.0 0.00 0.00 0.00 47 1011.3
20260904003808 31 191 9.7 11.3 0.00 0.00 0.00 46 1011.3
20260904003305 31 197 4.8 4.8 0.00 0.00 0.00 46 1011.2
20260904002759 32 201 3.2 3.2 0.00 0.00 0.00 46 1011.0
20260904002256 32 240 9.7 12.9 0.00 0.00 0.00 44 1011.1
20260904001755 32 264 0.0 0.0 0.00 0.00 0.00 43 1011.1
20260904001250 32 339 1.6 1.6 0.00 0.00 0.00 43 1011.1
20260904000745 32 296 0.0 0.0 0.00 0.00 0.00 44 1011.3
20260904000240 32 292 3.2 3.2 0.00 0.00 0.00 43 1011.4
20260903235739 32 320 1.6 1.6 0.00 0.00 0.00 42 1011.2
20260903235235 31 300 4.8 8.0 0.00 0.00 0.00 46 1011.2
20260903234734 31 291 1.6 3.2 0.00 0.00 0.00 47 1011.3
20260903234231 31 291 8.0 9.7 0.00 0.00 0.00 47 1011.1
20260903233727 31 301 6.4 9.7 0.00 0.00 0.00 46 1011.3
20260903233223 31 298 1.6 1.6 0.00 0.00 0.00 47 1011.3
20260903232721 31 224 4.8 4.8 0.00 0.00 0.00 48 1011.1
20260903232218 32 125 1.6 1.6 0.00 0.00 0.00 52 1011.1
20260903231716 32 257 6.4 8.0 0.00 0.00 0.00 41 1011.2
20260903231212 33 253 6.4 8.0 0.00 0.00 0.00 40 1011.2
20260903230708 33 290 1.6 1.6 0.00 0.00 0.00 41 1011.1
20260903230202 33 290 1.6 1.6 0.00 0.00 0.00 41 1011.0
20260903225658 33 294 3.2 3.2 0.00 0.00 0.00 41 1011.2
20260903225154 33 341 3.2 3.2 0.00 0.00 0.00 41 1011.5
20260903224650 33 350 1.6 1.6 0.00 0.00 0.00 40 1011.3
20260903224147 33 310 4.8 4.8 0.00 0.00 0.00 40 1011.2
20260903223641 34 291 3.2 3.2 0.00 0.00 0.00 38 1011.1
20260903223140 34 312 1.6 3.2 0.00 0.00 0.00 39 1011.2
20260903222635 33 357 1.6 1.6 0.00 0.00 0.00 39 1011.2
20260903222133 33 290 0.0 0.0 0.00 0.00 0.00 40 1011.1
20260903221629 33 295 3.2 4.8 0.00 0.00 0.00 39 1011.2
20260903221127 33 260 1.6 3.2 0.00 0.00 0.00 39 1011.1
20260903220626 33 133 1.6 1.6 0.00 0.00 0.00 38 1011.5
20260903220127 33 131 1.6 1.6 0.00 0.00 0.00 38 1011.5
20260903215625 33 215 8.0 8.0 0.00 0.00 0.00 37 1011.5
20260903215120 35 299 3.2 3.2 0.00 0.00 0.00 36 1011.6
20260903214619 35 253 4.8 3.2 0.00 0.00 0.00 35 1011.6
20260903214115 35 122 4.8 8.0 0.00 0.00 0.00 36 1011.5
20260903213610 34 255 4.8 4.8 0.00 0.00 0.00 36 1011.7
20260903213105 34 230 3.2 3.2 0.00 0.00 0.00 37 1011.8
20260903212601 35 239 8.0 8.0 0.00 0.00 0.00 36 1011.8
20260903212056 35 140 3.2 3.2 0.00 0.00 0.00 37 1011.9
20260903211551 34 253 4.8 4.8 0.00 0.00 0.00 37 1011.9
20260903211048 34 63 1.6 1.6 0.00 0.00 0.00 38 1011.8
20260903210542 34 123 0.0 0.0 0.00 0.00 0.00 37 1011.9
20260903210039 34 306 3.2 3.2 0.00 0.00 0.00 37 1012.0
20260903205538 34 280 4.8 4.8 0.00 0.00 0.00 38 1012.4
20260903205037 34 253 4.8 4.8 0.00 0.00 0.00 37 1012.2
20260903204534 35 301 4.8 4.8 0.00 0.00 0.00 37 1012.2
20260903204029 34 11 1.6 3.2 0.00 0.00 0.00 38 1012.2
20260903203525 33 53 1.6 1.6 0.00 0.00 0.00 40 1012.4
20260903203024 34 257 0.0 0.0 0.00 0.00 0.00 38 1012.5
20260903202520 34 329 1.6 3.2 0.00 0.00 0.00 39 1012.1
20260903202015 33 291 1.6 1.6 0.00 0.00 0.00 40 1012.6
20260903201510 33 15 0.0 0.0 0.00 0.00 0.00 40 1012.7
20260903201009 33 297 3.2 4.8 0.00 0.00 0.00 41 1013.1
20260903200504 33 114 1.6 1.6 0.00 0.00 0.00 41 1012.9
20260903195958 33 276 1.6 1.6 0.00 0.00 0.00 41 1013.1
20260903195455 33 175 1.6 1.6 0.00 0.00 0.00 40 1013.3
20260903194950 33 163 3.2 3.2 0.00 0.00 0.00 40 1013.4
20260903194445 33 198 3.2 3.2 0.00 0.00 0.00 41 1013.3
20260903193940 33 64 1.6 1.6 0.00 0.00 0.00 41 1013.3
20260903193437 32 160 4.8 4.8 0.00 0.00 0.00 41 1013.5
20260903192931 32 345 1.6 1.6 0.00 0.00 0.00 44 1013.6
20260903192428 32 239 0.0 0.0 0.00 0.00 0.00 43 1013.6
20260903191923 32 246 4.8 4.8 0.00 0.00 0.00 43 1013.6
20260903191420 32 250 3.2 3.2 0.00 0.00 0.00 44 1013.8
20260903190919 32 271 1.6 1.6 0.00 0.00 0.00 44 1013.9
20260903190413 32 202 1.6 1.6 0.00 0.00 0.00 43 1014.2
20260903185913 31 238 4.8 4.8 0.00 0.00 0.00 45 1014.2
20260903185408 31 251 1.6 4.8 0.00 0.00 0.00 44 1014.4
20260903184903 31 179 4.8 4.8 0.00 0.00 0.00 46 1014.5
20260903184400 31 228 1.6 3.2 0.00 0.00 0.00 46 1014.4
20260903183854 31 276 8.0 8.0 0.00 0.00 0.00 45 1014.4
20260903183349 31 181 1.6 1.6 0.00 0.00 0.00 46 1014.5
20260903182849 31 214 6.4 8.0 0.00 0.00 0.00 46 1014.5
20260903182348 31 253 6.4 8.0 0.00 0.00 0.00 45 1014.8
20260903181843 31 210 3.2 4.8 0.00 0.00 0.00 45 1014.7
20260903181338 31 143 0.0 0.0 0.00 0.00 0.00 46 1014.6
20260903180837 31 241 9.7 11.3 0.00 0.00 0.00 45 1014.8
20260903180332 31 246 4.8 4.8 0.00 0.00 0.00 46 1014.9
20260903175831 30 149 0.0 0.0 0.00 0.00 0.00 49 1014.9
20260903175331 30 184 6.4 8.0 0.00 0.00 0.00 48 1015.0
20260903174826 30 162 1.6 3.2 0.00 0.00 0.00 50 1014.9
20260903174321 30 195 3.2 3.2 0.00 0.00 0.00 48 1015.0
20260903173820 30 141 1.6 1.6 0.00 0.00 0.00 50 1015.4
20260903173316 30 175 1.6 1.6 0.00 0.00 0.00 51 1015.0
20260903172812 30 223 4.8 4.8 0.00 0.00 0.00 51 1015.3
20260903172307 30 121 1.6 3.2 0.00 0.00 0.00 50 1015.4
20260903171802 30 87 0.0 0.0 0.00 0.00 0.00 51 1015.3
20260903171258 30 190 3.2 4.8 0.00 0.00 0.00 50 1015.2
20260903170756 30 118 0.0 0.0 0.00 0.00 0.00 51 1015.2
20260903170252 30 93 0.0 0.0 0.00 0.00 0.00 53 1015.3
20260903165750 29 116 1.6 1.6 0.00 0.00 0.00 52 1015.0
20260903165245 29 101 1.6 1.6 0.00 0.00 0.00 53 1015.4
20260903164739 28 129 0.0 1.6 0.00 0.00 0.00 54 1015.3
20260903164236 29 125 3.2 3.2 0.00 0.00 0.00 54 1015.6
20260903163734 28 145 3.2 3.2 0.00 0.00 0.00 55 1015.4
20260903163231 28 93 1.6 1.6 0.00 0.00 0.00 54 1015.7
20260903162727 29 70 3.2 3.2 0.00 0.00 0.00 54 1015.3
20260903162223 28 137 1.6 1.6 0.00 0.00 0.00 54 1015.3
20260903161719 29 169 3.2 3.2 0.00 0.00 0.00 53 1015.3
20260903161214 29 132 0.0 0.0 0.00 0.00 0.00 52 1015.3
20260903160709 28 135 0.0 0.0 0.00 0.00 0.00 54 1015.2
20260903160208 28 109 1.6 1.6 0.00 0.00 0.00 54 1015.2
20260903155707 28 108 1.6 3.2 0.00 0.00 0.00 54 1015.6
20260903155202 28 96 0.0 0.0 0.00 0.00 0.00 56 1015.2
20260903154658 28 146 0.0 0.0 0.00 0.00 0.00 56 1015.3
20260903154154 28 146 0.0 0.0 0.00 0.00 0.00 57 1015.4
20260903153649 28 73 1.6 1.6 0.00 0.00 0.00 57 1015.5
20260903153145 27 356 0.0 0.0 0.00 0.00 0.00 58 1015.4
20260903152641 27 356 0.0 0.0 0.00 0.00 0.00 59 1015.4
20260903152137 27 356 0.0 0.0 0.00 0.00 0.00 60 1015.4
20260903151636 27 357 0.0 0.0 0.00 0.00 0.00 60 1015.5
20260903151131 27 358 1.6 1.6 0.00 0.00 0.00 59 1015.5
20260903150626 27 358 0.0 0.0 0.00 0.00 0.00 59 1015.3
20260903150121 27 358 0.0 0.0 0.00 0.00 0.00 60 1015.5
20260903145620 27 358 0.0 0.0 0.00 0.00 0.00 61 1015.2
20260903145115 27 358 1.6 1.6 0.00 0.00 0.00 62 1015.4
20260903144614 26 296 0.0 0.0 0.00 0.00 0.00 63 1015.5
20260903144111 26 320 1.6 1.6 0.00 0.00 0.00 62 1015.0
20260903143607 26 303 1.6 1.6 0.00 0.00 0.00 62 1015.4
20260903143102 26 298 0.0 0.0 0.00 0.00 0.00 61 1015.4
20260903142557 26 332 1.6 1.6 0.00 0.00 0.00 60 1015.4
20260903142054 26 252 1.6 3.2 0.00 0.00 0.00 60 1015.2
20260903141549 26 278 1.6 1.6 0.00 0.00 0.00 60 1015.3
20260903141044 26 288 1.6 1.6 0.00 0.00 0.00 59 1015.2
20260903140540 26 288 0.0 0.0 0.00 0.00 0.00 59 1015.2
20260903140035 26 287 0.0 0.0 0.00 0.00 0.00 59 1015.2
20260903135530 26 295 0.0 0.0 0.00 0.00 0.00 61 1015.3
20260903135025 26 295 0.0 0.0 0.00 0.00 0.00 62 1015.4
20260903134525 26 324 1.6 1.6 0.00 0.00 0.00 61 1015.0
20260903134021 26 335 1.6 1.6 0.00 0.00 0.00 62 1015.0
20260903133518 26 93 0.0 1.6 0.00 0.00 0.00 66 1015.0
20260903133013 25 92 0.0 0.0 0.00 0.00 0.00 68 1015.0
20260903132508 25 92 0.0 0.0 0.00 0.00 0.00 68 1015.0
20260903132003 25 93 0.0 0.0 0.00 0.00 0.00 69 1014.9
20260903131458 25 93 0.0 0.0 0.00 0.00 0.00 70 1014.8
20260903130956 25 93 0.0 0.0 0.00 0.00 0.00 68 1014.7
20260903130452 25 93 0.0 0.0 0.00 0.00 0.00 69 1014.7
20260903125951 25 93 0.0 0.0 0.00 0.00 0.00 68 1014.7
20260903125450 25 93 0.0 0.0 0.00 0.00 0.00 68 1014.6
20260903124945 25 93 0.0 0.0 0.00 0.00 0.00 67 1014.6
20260903124440 25 93 0.0 0.0 0.00 0.00 0.00 67 1014.6
20260903123939 25 93 0.0 0.0 0.00 0.00 0.00 68 1014.5
20260903123434 25 93 0.0 0.0 0.00 0.00 0.00 67 1014.4
20260903122932 25 93 0.0 0.0 0.00 0.00 0.00 66 1014.3
20260903122427 26 93 0.0 0.0 0.00 0.00 0.00 66 1014.3
20260903121925 26 93 0.0 0.0 0.00 0.00 0.00 66 1014.2
20260903121421 25 93 0.0 0.0 0.00 0.00 0.00 66 1014.4
20260903120917 25 92 0.0 0.0 0.00 0.00 0.00 67 1014.3
20260903120416 25 92 0.0 0.0 0.00 0.00 0.00 67 1014.3
20260903115915 26 92 0.0 0.0 0.00 0.00 0.00 67 1014.0
20260903115414 26 92 0.0 0.0 0.00 0.00 0.00 66 1014.0
20260903114909 26 92 0.0 0.0 0.00 0.00 0.00 66 1013.8
20260903114405 26 92 0.0 0.0 0.00 0.00 0.00 66 1014.0
20260903113901 26 92 0.0 0.0 0.00 0.00 0.00 66 1014.0
20260903113356 26 97 1.6 1.6 0.00 0.00 0.00 66 1014.1
20260903112852 26 103 0.0 0.0 0.00 0.00 0.00 66 1014.2
20260903112347 26 85 0.0 0.0 0.00 0.00 0.00 66 1014.0
20260903111846 26 92 0.0 0.0 0.00 0.00 0.00 65 1014.0
20260903111346 26 79 1.6 1.6 0.00 0.00 0.00 65 1014.2
20260903110842 26 73 1.6 1.6 0.00 0.00 0.00 65 1014.1
20260903110337 26 80 1.6 1.6 0.00 0.00 0.00 65 1014.2
20260903105832 26 85 1.6 1.6 0.00 0.00 0.00 66 1014.4
20260903105333 26 98 1.6 1.6 0.00 0.00 0.00 66 1013.9
20260903104832 26 92 0.0 1.6 0.00 0.00 0.00 66 1014.1
20260903104327 26 86 1.6 1.6 0.00 0.00 0.00 66 1014.1
20260903103824 26 79 3.2 3.2 0.00 0.00 0.00 66 1014.3
20260903103320 26 80 1.6 1.6 0.00 0.00 0.00 66 1014.2
20260903102815 26 78 1.6 1.6 0.00 0.00 0.00 66 1014.3
20260903102310 26 81 0.0 1.6 0.00 0.00 0.00 66 1014.3
20260903101809 26 83 0.0 0.0 0.00 0.00 0.00 66 1014.2
20260903101304 26 79 3.2 3.2 0.00 0.00 0.00 65 1014.3
20260903100759 26 84 1.6 1.6 0.00 0.00 0.00 66 1014.4
20260903100254 26 96 0.0 0.0 0.00 0.00 0.00 65 1014.1
20260903095751 26 104 1.6 1.6 0.00 0.00 0.00 65 1014.3
20260903095246 26 105 1.6 1.6 0.00 0.00 0.00 65 1014.2
20260903094741 26 116 0.0 0.0 0.00 0.00 0.00 65 1014.2
20260903094236 26 125 0.0 1.6 0.00 0.00 0.00 64 1014.3
20260903093731 26 123 0.0 0.0 0.00 0.00 0.00 64 1014.2
20260903093227 26 127 1.6 1.6 0.00 0.00 0.00 63 1014.2
20260903092726 26 124 1.6 1.6 0.00 0.00 0.00 63 1014.4
20260903092221 26 93 1.6 1.6 0.00 0.00 0.00 63 1014.4
20260903091720 26 117 1.6 1.6 0.00 0.00 0.00 63 1014.5
20260903091215 26 122 0.0 0.0 0.00 0.00 0.00 64 1014.3
20260903090710 26 122 0.0 0.0 0.00 0.00 0.00 63 1014.2
20260903090208 26 125 1.6 1.6 0.00 0.00 0.00 63 1014.2
20260903085707 26 122 0.0 0.0 0.00 0.00 0.00 63 1014.3
20260903085203 26 115 1.6 1.6 0.00 0.00 0.00 63 1014.3
20260903084700 26 109 0.0 0.0 0.00 0.00 0.00 63 1014.6
20260903084155 26 109 1.6 1.6 0.00 0.00 0.00 63 1014.4
20260903083652 26 98 0.0 1.6 0.00 0.00 0.00 63 1014.3
20260903083151 27 98 0.0 0.0 0.00 0.00 0.00 63 1014.3
20260903082645 27 126 1.6 1.6 0.00 0.00 0.00 62 1014.5
20260903082141 27 153 0.0 0.0 0.00 0.00 0.00 62 1014.3
20260903081636 27 154 0.0 0.0 0.00 0.00 0.00 62 1014.3
20260903081132 27 132 1.6 1.6 0.00 0.00 0.00 62 1014.3
20260903080628 27 125 0.0 0.0 0.00 0.00 0.00 62 1014.4
20260903080126 27 125 0.0 0.0 0.00 0.00 0.00 62 1014.6
20260903075624 27 194 0.0 0.0 0.00 0.00 0.00 62 1014.3
20260903075120 27 194 0.0 0.0 0.00 0.00 0.00 61 1014.4
20260903074619 27 195 1.6 1.6 0.00 0.00 0.00 60 1014.6
20260903074114 27 123 0.0 0.0 0.00 0.00 0.00 60 1014.3
20260903073609 27 134 3.2 4.8 0.00 0.00 0.00 60 1014.3
20260903073105 27 98 0.0 0.0 0.00 0.00 0.00 60 1014.4
20260903072601 27 122 1.6 1.6 0.00 0.00 0.00 59 1014.4
20260903072057 27 106 0.0 0.0 0.00 0.00 0.00 59 1014.5
20260903071554 27 102 1.6 1.6 0.00 0.00 0.00 59 1014.5
20260903071054 27 124 1.6 1.6 0.00 0.00 0.00 58 1014.3
20260903070554 27 129 4.8 3.2 0.00 0.00 0.00 58 1014.3
20260903070050 27 117 1.6 1.6 0.00 0.00 0.00 58 1014.2
20260903065548 27 112 1.6 1.6 0.00 0.00 0.00 58 1014.1
20260903065043 27 110 1.6 1.6 0.00 0.00 0.00 58 1014.2
20260903064543 27 112 1.6 1.6 0.00 0.00 0.00 57 1014.3
20260903064038 27 110 1.6 1.6 0.00 0.00 0.00 58 1014.3
20260903063533 27 103 0.0 0.0 0.00 0.00 0.00 58 1014.2
20260903063029 27 103 0.0 0.0 0.00 0.00 0.00 58 1014.2
20260903062524 27 103 0.0 0.0 0.00 0.00 0.00 58 1014.3
20260903062019 27 103 0.0 0.0 0.00 0.00 0.00 57 1014.1
20260903061514 27 105 0.0 0.0 0.00 0.00 0.00 56 1014.3
20260903061009 27 105 0.0 0.0 0.00 0.00 0.00 57 1014.1
20260903060503 27 105 0.0 0.0 0.00 0.00 0.00 56 1014.3
20260903060004 28 105 0.0 0.0 0.00 0.00 0.00 56 1014.1
20260903055501 28 105 0.0 1.6 0.00 0.00 0.00 55 1014.3
20260903055000 28 105 0.0 1.6 0.00 0.00 0.00 55 1014.1
20260903054455 28 105 0.0 0.0 0.00 0.00 0.00 54 1014.3
20260903053951 28 105 1.6 1.6 0.00 0.00 0.00 54 1014.4
20260903053450 28 105 1.6 1.6 0.00 0.00 0.00 53 1014.4
20260903052947 28 105 0.0 0.0 0.00 0.00 0.00 52 1014.3